EN

Hourly Weather Laguny

Today, 26 July, Monday

Time Temperature Precipitation Wind Pressure Humidity
00:00 +20°C° 0.1 mm 3 mps 749 mmHg 76%
01:00 +19°C° 0.1 mm 3 mps 749 mmHg 78%
02:00 +19°C° 0.1 mm 3 mps 749 mmHg 78%
03:00 +19°C° 0.1 mm 3 mps 748 mmHg 78%
04:00 +19°C° 0.1 mm 3 mps 748 mmHg 78%
05:00 +20°C° 0.1 mm 4 mps 748 mmHg 77%
06:00 +20°C° 0.1 mm 4 mps 748 mmHg 77%
07:00 +21°C° 0.1 mm 5 mps 748 mmHg 76%
08:00 +23°C° 0 mm 6 mps 748 mmHg 68%
09:00 +26°C° 0 mm 6 mps 748 mmHg 59%
10:00 +28°C° 0 mm 7 mps 748 mmHg 51%
11:00 +28°C° 0 mm 7 mps 748 mmHg 53%
12:00 +28°C° 0 mm 7 mps 748 mmHg 55%
13:00 +28°C° 0 mm 7 mps 748 mmHg 58%
14:00 +28°C° 0.1 mm 6 mps 747 mmHg 58%
15:00 +28°C° 0.1 mm 6 mps 747 mmHg 58%
16:00 +28°C° 0.1 mm 5 mps 747 mmHg 58%
17:00 +26°C° 2.6 mm 4 mps 747 mmHg 69%
18:00 +24°C° 2.6 mm 3 mps 747 mmHg 81%
19:00 +21°C° 2.6 mm 2 mps 747 mmHg 92%
20:00 +20°C° 0.3 mm 2 mps 747 mmHg 93%
21:00 +20°C° 0.3 mm 3 mps 747 mmHg 94%
22:00 +20°C° 0.3 mm 3 mps 747 mmHg 95%
23:00 +20°C° 0 mm 3 mps 747 mmHg 96%

Tomorrow, 27 July, Tuesday

Time Temperature Precipitation Wind Pressure Humidity
00:00 +19°C° 0 mm 2 mps 746 mmHg 97%
01:00 +19°C° 0 mm 2 mps 746 mmHg 98%
02:00 +20°C° 0 mm 1 mps 746 mmHg 97%
03:00 +20°C° 0 mm 1 mps 746 mmHg 96%
04:00 +20°C° 0 mm 1 mps 746 mmHg 95%
05:00 +21°C° 0 mm 1 mps 746 mmHg 91%
06:00 +21°C° 0 mm 2 mps 746 mmHg 87%
07:00 +23°C° 0 mm 2 mps 746 mmHg 83%
08:00 +23°C° 0 mm 2 mps 747 mmHg 80%
09:00 +24°C° 0 mm 3 mps 747 mmHg 77%
10:00 +25°C° 0 mm 4 mps 747 mmHg 74%
11:00 +25°C° 0.4 mm 3 mps 747 mmHg 74%
12:00 +25°C° 0.4 mm 3 mps 747 mmHg 73%
13:00 +25°C° 0.4 mm 3 mps 747 mmHg 73%
14:00 +26°C° 0.3 mm 3 mps 747 mmHg 71%
15:00 +26°C° 0.3 mm 4 mps 747 mmHg 70%
16:00 +26°C° 0.3 mm 4 mps 747 mmHg 68%
17:00 +25°C° 0.1 mm 4 mps 747 mmHg 72%
18:00 +24°C° 0.1 mm 3 mps 747 mmHg 76%
19:00 +22°C° 0.1 mm 3 mps 747 mmHg 81%
20:00 +21°C° 0.1 mm 3 mps 747 mmHg 83%
21:00 +21°C° 0.1 mm 2 mps 748 mmHg 85%
22:00 +20°C° 0.1 mm 2 mps 748 mmHg 87%
23:00 +19°C° 0.1 mm 2 mps 748 mmHg 88%

Day after tomorrow, 28 July, Wednesday

Time Temperature Precipitation Wind Pressure Humidity
00:00 +19°C° 0.1 mm 2 mps 748 mmHg 88%
01:00 +19°C° 0.1 mm 2 mps 748 mmHg 89%
02:00 +19°C° 0 mm 2 mps 748 mmHg 89%
03:00 +18°C° 0 mm 2 mps 748 mmHg 90%
04:00 +18°C° 0 mm 2 mps 747 mmHg 90%
05:00 +20°C° 0 mm 3 mps 748 mmHg 84%
06:00 +21°C° 0 mm 3 mps 748 mmHg 79%
07:00 +24°C° 0 mm 3 mps 748 mmHg 73%
08:00 +25°C° 0 mm 4 mps 748 mmHg 66%
09:00 +27°C° 0 mm 4 mps 748 mmHg 59%
10:00 +28°C° 0 mm 4 mps 748 mmHg 52%
11:00 +29°C° 0 mm 4 mps 748 mmHg 49%
12:00 +29°C° 0 mm 5 mps 748 mmHg 47%
13:00 +30°C° 0 mm 5 mps 748 mmHg 44%
14:00 +30°C° 0 mm 4 mps 747 mmHg 45%
15:00 +30°C° 0 mm 4 mps 747 mmHg 46%
16:00 +29°C° 0 mm 4 mps 747 mmHg 46%
17:00 +28°C° 0 mm 3 mps 747 mmHg 52%
18:00 +27°C° 0 mm 2 mps 747 mmHg 57%
19:00 +25°C° 0 mm 1 mps 747 mmHg 63%
20:00 +24°C° 0.1 mm 3 mps 747 mmHg 67%
21:00 +22°C° 0.1 mm 4 mps 747 mmHg 70%
22:00 +21°C° 0.1 mm 5 mps 748 mmHg 74%
23:00 +20°C° 0.1 mm 4 mps 747 mmHg 76%

29 July, Thursday

Time Temperature Precipitation Wind Pressure Humidity
00:00 +20°C° 0.1 mm 3 mps 747 mmHg 79%
01:00 +19°C° 0.1 mm 2 mps 747 mmHg 81%
02:00 +19°C° 0.1 mm 2 mps 747 mmHg 82%
03:00 +19°C° 0.1 mm 2 mps 748 mmHg 84%
04:00 +19°C° 0.1 mm 2 mps 748 mmHg 85%
05:00 +19°C° 0 mm 2 mps 748 mmHg 83%
06:00 +20°C° 0 mm 3 mps 748 mmHg 80%
07:00 +21°C° 0 mm 3 mps 748 mmHg 78%
08:00 +22°C° 0 mm 3 mps 748 mmHg 71%
09:00 +23°C° 0 mm 4 mps 748 mmHg 65%
10:00 +25°C° 0 mm 4 mps 748 mmHg 59%
11:00 +26°C° 0 mm 4 mps 748 mmHg 56%
12:00 +27°C° 0 mm 4 mps 748 mmHg 53%
13:00 +28°C° 0 mm 4 mps 748 mmHg 49%
14:00 +28°C° 0 mm 4 mps 747 mmHg 48%
15:00 +28°C° 0 mm 4 mps 747 mmHg 47%
16:00 +28°C° 0 mm 3 mps 747 mmHg 46%
17:00 +27°C° 0 mm 3 mps 747 mmHg 51%
18:00 +26°C° 0 mm 3 mps 747 mmHg 57%
19:00 +24°C° 0 mm 2 mps 746 mmHg 62%
20:00 +24°C° 0 mm 2 mps 746 mmHg 62%
21:00 +24°C° 0 mm 2 mps 746 mmHg 62%
22:00 +23°C° 0 mm 2 mps 746 mmHg 62%
23:00 +23°C° 0 mm 2 mps 746 mmHg 63%

30 July, Friday

Time Temperature Precipitation Wind Pressure Humidity
00:00 +21°C° 0 mm 2 mps 746 mmHg 65%
01:00 +21°C° 0 mm 3 mps 745 mmHg 66%
02:00 +21°C° 0 mm 3 mps 745 mmHg 68%
03:00 +20°C° 0 mm 3 mps 745 mmHg 70%
04:00 +19°C° 0 mm 3 mps 745 mmHg 73%
05:00 +21°C° 0 mm 4 mps 745 mmHg 70%
06:00 +22°C° 0 mm 4 mps 745 mmHg 68%
07:00 +23°C° 0 mm 4 mps 744 mmHg 65%
08:00 +25°C° 0 mm 5 mps 744 mmHg 63%
09:00 +26°C° 0 mm 5 mps 744 mmHg 61%
10:00 +27°C° 0 mm 5 mps 744 mmHg 60%
11:00 +28°C° 0 mm 5 mps 744 mmHg 57%
12:00 +29°C° 0 mm 5 mps 743 mmHg 54%
13:00 +30°C° 0 mm 5 mps 743 mmHg 52%
14:00 +29°C° 0.1 mm 5 mps 743 mmHg 55%
15:00 +28°C° 0.1 mm 5 mps 743 mmHg 58%
16:00 +27°C° 0.1 mm 5 mps 743 mmHg 62%
17:00 +26°C° 0 mm 5 mps 742 mmHg 67%
18:00 +25°C° 0 mm 4 mps 742 mmHg 72%
19:00 +22°C° 0 mm 3 mps 742 mmHg 78%
20:00 +21°C° 0 mm 3 mps 742 mmHg 80%
21:00 +20°C° 0 mm 3 mps 742 mmHg 83%
22:00 +19°C° 0 mm 3 mps 743 mmHg 86%
23:00 +19°C° 0 mm 3 mps 743 mmHg 84%

31 July, Saturday

Time Temperature Precipitation Wind Pressure Humidity
00:00 +19°C° 0 mm 3 mps 743 mmHg 81%
01:00 +18°C° 0 mm 3 mps 743 mmHg 79%
02:00 +18°C° 0 mm 3 mps 743 mmHg 79%
03:00 +17°C° 0 mm 3 mps 743 mmHg 78%
04:00 +17°C° 0 mm 3 mps 743 mmHg 77%
05:00 +18°C° 0 mm 4 mps 743 mmHg 72%
06:00 +19°C° 0 mm 5 mps 743 mmHg 67%
07:00 +20°C° 0 mm 6 mps 743 mmHg 61%
08:00 +21°C° 0 mm 6 mps 744 mmHg 58%
09:00 +22°C° 0 mm 7 mps 744 mmHg 54%
10:00 +23°C° 0 mm 8 mps 744 mmHg 51%
11:00 +23°C° 0 mm 8 mps 744 mmHg 52%
12:00 +23°C° 0 mm 8 mps 744 mmHg 53%
13:00 +22°C° 0 mm 8 mps 745 mmHg 54%
14:00 +22°C° 0 mm 7 mps 745 mmHg 53%
15:00 +22°C° 0 mm 7 mps 745 mmHg 52%
16:00 +22°C° 0 mm 7 mps 745 mmHg 51%
17:00 +22°C° 0 mm 6 mps 745 mmHg 53%
18:00 +21°C° 0 mm 5 mps 745 mmHg 56%
19:00 +20°C° 0 mm 5 mps 745 mmHg 58%
20:00 +19°C° 0 mm 4 mps 745 mmHg 62%
21:00 +18°C° 0 mm 4 mps 745 mmHg 65%
22:00 +17°C° 0 mm 3 mps 745 mmHg 69%
23:00 +17°C° 0 mm 3 mps 745 mmHg 73%
Show more